Stündliche Wetter Kzyl-Yalan

Heute, 18 Mai, Dienstag

Zeit Temperatur Niederschläge Wind Luftdruck Luftfeuchtigkeit
00:00 +19°C° 0.2 mm 2 m/S 752 mmHg 70%
01:00 +18°C° 0 mm 2 m/S 752 mmHg 73%
02:00 +18°C° 0 mm 2 m/S 752 mmHg 76%
03:00 +18°C° 0 mm 2 m/S 752 mmHg 77%
04:00 +19°C° 0.1 mm 3 m/S 752 mmHg 76%
05:00 +19°C° 0.1 mm 4 m/S 752 mmHg 76%
06:00 +20°C° 0.1 mm 5 m/S 752 mmHg 75%
07:00 +22°C° 0 mm 4 m/S 752 mmHg 68%
08:00 +25°C° 0 mm 4 m/S 752 mmHg 61%
09:00 +26°C° 0 mm 3 m/S 752 mmHg 54%
10:00 +27°C° 0 mm 3 m/S 752 mmHg 51%
11:00 +28°C° 0 mm 3 m/S 752 mmHg 47%
12:00 +29°C° 0 mm 2 m/S 753 mmHg 43%
13:00 +30°C° 0 mm 3 m/S 752 mmHg 42%
14:00 +30°C° 0 mm 3 m/S 752 mmHg 42%
15:00 +30°C° 0 mm 3 m/S 752 mmHg 41%
16:00 +29°C° 0 mm 4 m/S 752 mmHg 45%
17:00 +27°C° 0 mm 4 m/S 752 mmHg 50%
18:00 +26°C° 0 mm 4 m/S 752 mmHg 54%
19:00 +25°C° 0 mm 4 m/S 752 mmHg 57%
20:00 +22°C° 0 mm 4 m/S 752 mmHg 60%
21:00 +20°C° 0 mm 4 m/S 753 mmHg 63%
22:00 +20°C° 0 mm 4 m/S 753 mmHg 62%
23:00 +19°C° 0 mm 4 m/S 753 mmHg 62%

Morgen, 19 Mai, Mittwoch

Zeit Temperatur Niederschläge Wind Luftdruck Luftfeuchtigkeit
00:00 +18°C° 0 mm 4 m/S 753 mmHg 61%
01:00 +18°C° 0 mm 4 m/S 753 mmHg 65%
02:00 +17°C° 0 mm 4 m/S 753 mmHg 69%
03:00 +15°C° 0 mm 4 m/S 753 mmHg 73%
04:00 +17°C° 0 mm 4 m/S 753 mmHg 73%
05:00 +17°C° 0 mm 4 m/S 753 mmHg 73%
06:00 +17°C° 0 mm 5 m/S 753 mmHg 72%
07:00 +19°C° 0 mm 5 m/S 753 mmHg 67%
08:00 +21°C° 0 mm 6 m/S 753 mmHg 61%
09:00 +22°C° 0 mm 6 m/S 754 mmHg 56%
10:00 +23°C° 0 mm 6 m/S 753 mmHg 52%
11:00 +24°C° 0 mm 6 m/S 753 mmHg 48%
12:00 +26°C° 0 mm 6 m/S 753 mmHg 44%
13:00 +27°C° 0 mm 6 m/S 753 mmHg 43%
14:00 +27°C° 0 mm 6 m/S 753 mmHg 42%
15:00 +28°C° 0 mm 6 m/S 753 mmHg 41%
16:00 +27°C° 0 mm 5 m/S 753 mmHg 46%
17:00 +26°C° 0 mm 5 m/S 753 mmHg 50%
18:00 +25°C° 0 mm 4 m/S 752 mmHg 55%
19:00 +23°C° 0 mm 4 m/S 753 mmHg 59%
20:00 +21°C° 0 mm 4 m/S 753 mmHg 64%
21:00 +19°C° 0 mm 4 m/S 753 mmHg 68%
22:00 +19°C° 0 mm 4 m/S 753 mmHg 68%
23:00 +18°C° 0 mm 4 m/S 753 mmHg 68%

übermorgen, 20 Mai, Donnerstag

Zeit Temperatur Niederschläge Wind Luftdruck Luftfeuchtigkeit
00:00 +18°C° 0 mm 3 m/S 753 mmHg 68%
01:00 +17°C° 0 mm 3 m/S 753 mmHg 68%
02:00 +16°C° 0 mm 3 m/S 753 mmHg 68%
03:00 +16°C° 0 mm 3 m/S 753 mmHg 68%
04:00 +17°C° 0 mm 4 m/S 753 mmHg 67%
05:00 +17°C° 0 mm 4 m/S 753 mmHg 65%
06:00 +17°C° 0 mm 5 m/S 753 mmHg 63%
07:00 +19°C° 0 mm 5 m/S 753 mmHg 59%
08:00 +21°C° 0 mm 5 m/S 753 mmHg 54%
09:00 +22°C° 0 mm 6 m/S 753 mmHg 49%
10:00 +23°C° 0 mm 6 m/S 753 mmHg 46%
11:00 +23°C° 0 mm 6 m/S 753 mmHg 42%
12:00 +24°C° 0 mm 6 m/S 753 mmHg 39%
13:00 +24°C° 0 mm 6 m/S 753 mmHg 38%
14:00 +24°C° 0 mm 6 m/S 752 mmHg 37%
15:00 +26°C° 0 mm 6 m/S 752 mmHg 36%
16:00 +24°C° 0 mm 6 m/S 752 mmHg 40%
17:00 +23°C° 0 mm 5 m/S 751 mmHg 45%
18:00 +22°C° 0 mm 4 m/S 751 mmHg 49%
19:00 +20°C° 0 mm 4 m/S 751 mmHg 54%
20:00 +19°C° 0 mm 4 m/S 751 mmHg 58%
21:00 +17°C° 0 mm 3 m/S 751 mmHg 62%
22:00 +17°C° 0 mm 3 m/S 750 mmHg 62%
23:00 +16°C° 0 mm 3 m/S 750 mmHg 62%

21 Mai, Freitag

Zeit Temperatur Niederschläge Wind Luftdruck Luftfeuchtigkeit
00:00 +16°C° 0 mm 3 m/S 750 mmHg 62%
01:00 +16°C° 0 mm 3 m/S 750 mmHg 63%
02:00 +16°C° 0 mm 3 m/S 749 mmHg 64%
03:00 +16°C° 0 mm 3 m/S 749 mmHg 65%
04:00 +14°C° 0.2 mm 3 m/S 749 mmHg 73%
05:00 +14°C° 0.2 mm 4 m/S 750 mmHg 80%
06:00 +14°C° 0.2 mm 4 m/S 750 mmHg 88%
07:00 +17°C° 0 mm 4 m/S 750 mmHg 81%
08:00 +17°C° 0 mm 5 m/S 750 mmHg 74%
09:00 +20°C° 0 mm 6 m/S 750 mmHg 68%
10:00 +21°C° 0.4 mm 6 m/S 750 mmHg 63%
11:00 +22°C° 0.4 mm 6 m/S 750 mmHg 58%
12:00 +23°C° 0.4 mm 6 m/S 750 mmHg 53%
13:00 +22°C° 0.1 mm 5 m/S 751 mmHg 57%
14:00 +21°C° 0.1 mm 5 m/S 751 mmHg 61%
15:00 +20°C° 0.1 mm 4 m/S 751 mmHg 65%
16:00 +20°C° 0.1 mm 4 m/S 751 mmHg 65%
17:00 +20°C° 0.1 mm 4 m/S 751 mmHg 65%
18:00 +20°C° 0.1 mm 4 m/S 752 mmHg 65%
19:00 +19°C° 0 mm 4 m/S 752 mmHg 70%
20:00 +17°C° 0 mm 3 m/S 752 mmHg 74%
21:00 +16°C° 0 mm 3 m/S 753 mmHg 79%
22:00 +14°C° 0 mm 3 m/S 753 mmHg 80%
23:00 +14°C° 0 mm 3 m/S 753 mmHg 81%

22 Mai, Samstag

Zeit Temperatur Niederschläge Wind Luftdruck Luftfeuchtigkeit
00:00 +13°C° 0 mm 3 m/S 753 mmHg 83%
01:00 +13°C° 0 mm 3 m/S 754 mmHg 84%
02:00 +13°C° 0 mm 3 m/S 754 mmHg 85%
03:00 +13°C° 0 mm 2 m/S 754 mmHg 86%
04:00 +13°C° 0 mm 3 m/S 755 mmHg 83%
05:00 +14°C° 0 mm 3 m/S 755 mmHg 79%
06:00 +16°C° 0 mm 3 m/S 755 mmHg 76%
07:00 +18°C° 0 mm 3 m/S 755 mmHg 70%
08:00 +19°C° 0 mm 3 m/S 755 mmHg 65%
09:00 +20°C° 0 mm 4 m/S 755 mmHg 60%
10:00 +21°C° 0 mm 3 m/S 755 mmHg 59%
11:00 +21°C° 0 mm 3 m/S 755 mmHg 58%
12:00 +22°C° 0 mm 3 m/S 755 mmHg 58%
13:00 +24°C° 0 mm 3 m/S 755 mmHg 55%
14:00 +25°C° 0 mm 4 m/S 754 mmHg 52%
15:00 +26°C° 0 mm 5 m/S 754 mmHg 50%
16:00 +25°C° 0 mm 4 m/S 754 mmHg 53%
17:00 +23°C° 0 mm 4 m/S 753 mmHg 57%
18:00 +23°C° 0 mm 4 m/S 753 mmHg 61%
19:00 +22°C° 0 mm 4 m/S 753 mmHg 62%
20:00 +21°C° 0 mm 5 m/S 753 mmHg 63%
21:00 +20°C° 0 mm 5 m/S 752 mmHg 64%
22:00 +19°C° 0 mm 5 m/S 753 mmHg 68%
23:00 +17°C° 0 mm 5 m/S 753 mmHg 73%

23 Mai, Sonntag

Zeit Temperatur Niederschläge Wind Luftdruck Luftfeuchtigkeit
00:00 +17°C° 0 mm 4 m/S 754 mmHg 77%
01:00 +17°C° 0 mm 3 m/S 754 mmHg 80%
02:00 +16°C° 0 mm 2 m/S 754 mmHg 83%
03:00 +16°C° 0 mm 1 m/S 754 mmHg 85%
04:00 +16°C° 0.1 mm 2 m/S 754 mmHg 85%
05:00 +17°C° 0.1 mm 2 m/S 754 mmHg 84%
06:00 +17°C° 0.1 mm 2 m/S 754 mmHg 84%
07:00 +18°C° 0.6 mm 2 m/S 755 mmHg 83%
08:00 +18°C° 0.6 mm 2 m/S 755 mmHg 82%
09:00 +19°C° 0.6 mm 2 m/S 756 mmHg 82%
10:00 +19°C° 0.3 mm 3 m/S 755 mmHg 79%
11:00 +20°C° 0.3 mm 3 m/S 755 mmHg 76%
12:00 +21°C° 0.3 mm 4 m/S 755 mmHg 74%
13:00 +21°C° 0.1 mm 4 m/S 755 mmHg 72%
14:00 +22°C° 0.1 mm 4 m/S 755 mmHg 71%
15:00 +23°C° 0.1 mm 4 m/S 755 mmHg 70%
16:00 +23°C° 0 mm 4 m/S 754 mmHg 70%
17:00 +23°C° 0 mm 5 m/S 754 mmHg 70%
18:00 +23°C° 0 mm 5 m/S 753 mmHg 71%
19:00 +22°C° 0 mm 4 m/S 753 mmHg 73%
20:00 +21°C° 0 mm 4 m/S 753 mmHg 75%
21:00 +20°C° 0 mm 3 m/S 753 mmHg 78%
22:00 +20°C° 0 mm 3 m/S 753 mmHg 74%
23:00 +20°C° 0 mm 4 m/S 752 mmHg 70%
Mehr zeigen

Wir brauchen deine Erlaubnis

Meteoprog und unser Service Anbieter werden persönliche Daten aufbewahren, so wie Cookies, Geräte Bezeichnung oder ähnliche Technologien von deinem Gerät und Prozess, so wie Persönliche Daten Inhalte und Werbungen, genauso wie social Media und den Verkehr zu analysieren.

  • Aufbewahrung und/oder Zugang zu deiner Geräte Informationen.

    Cookies, Geräte Bezeichnung oder andere Informationen, können aufbewahrt oder Zugang zu deinem Gerät erhalten, für den Grund, der oben angegeben wird.

  • Personalisierte Werbung und Inhalte, Messungen, Einblick in das Publikum und Produkt Entwicklung.

    Werbungen und Inhalte können personalisiert werden, basierend auf ein Profil. Mehr Daten können besser personalisierte Werbungen und Inhalte hinzufügen. Werbung und Inhalte können gezeigt und gemessen werden. Einblicke über das Publikum, welche die Werbung gesehen haben und den Inhalt, können abgeleitet werden. So wie Daten können genutzt werden, um es zu verbessern oder die Benutzer Erfahrung zu verbessern das System und die Software.

Wenn du “Ich stimme zu” klickst, erlaubst du uns, die Cookies zu benutzen die Geräte Bezeichnung, den Web oder ähnliche Technologien zu benutzen. Deine Settings, können in deinem Gerät bei deinem Browser geändert werden.

Für den bestimmten Zweck, berechtigten Interessen beruhen darauf, mehr als auf den Inhalt. Du kannst mehr darüber in unseren Privaten und Cookie Politik lesen.